Wetbulb
58.47 58.42 58.59 58.73 58.97 59.20 59.39 59.39 59.32 59.22 59.30 59.53 59.73 59.94 60.21 60.37 59.81 56.90 51.29 56.62 57.84 63.81 59.44 55.43 55.30 54.50 55.17 53.65 52.83 52.08 47.82 44.92 45.10 44.62 46.32 49.67 48.36 49.58 50.72 50.37 50.29 51.82 52.57 53.49 52.27
58.15 58.04 58.29 58.55 58.76 59.15 59.48 59.69 59.47 59.14 58.98 58.97 59.11 59.40 59.90 59.93 56.20 52.92 60.03 61.69 64.13 61.78 54.80 53.66 52.19 53.19 52.40 51.71 52.63 50.65 47.02 46.00 48.50 48.64 47.37 48.60 48.54 49.81 49.10 49.72 50.21 51.16 53.22 52.30 51.54
57.87 57.75 57.82 58.09 58.42 59.03 59.44 59.69 59.75 59.52 59.23 58.91 58.72 58.97 59.50 59.49 51.76 50.37 61.85 63.32 65.24 60.10 55.29 53.92 53.95 52.54 50.00 51.43 51.11 49.63 46.35 48.78 47.78 48.48 48.35 47.72 47.98 49.66 48.62 47.48 50.40 50.10 51.70 53.79 51.76
57.83 57.58 57.66 57.88 58.23 58.87 59.45 59.87 59.99 60.04 59.57 59.12 58.85 58.70 59.41 56.38 45.06 50.80 63.99 63.76 63.75 56.12 54.29 53.00 52.25 50.08 48.80 47.66 50.29 46.26 49.13 48.89 49.11 48.45 48.37 47.55 49.31 48.09 48.95 49.78 52.14 52.84 53.17 53.02 52.41
57.72 57.57 57.64 57.81 58.16 58.85 59.61 59.98 59.97 60.10 59.96 59.39 58.97 58.66 56.66 48.42 49.55 60.99 63.63 64.12 55.95 53.92 52.96 51.89 50.24 49.74 47.06 47.64 47.44 46.58 48.12 48.91 49.33 48.53 48.68 49.22 47.87 48.27 48.83 51.53 52.59 52.38 51.69 51.28 51.95
57.54 57.42 57.46 57.72 58.39 58.95 59.52 59.82 59.88 59.84 59.63 59.35 58.97 58.27 51.39 44.43 54.40 60.99 60.52 54.48 54.70 53.66 51.90 51.92 50.53 50.86 47.84 46.80 46.55 46.87 46.69 47.09 47.89 47.91 48.19 46.02 47.48 46.13 49.03 51.28 50.25 50.22 50.32 51.21 51.36
57.80 57.50 57.44 57.81 58.57 59.16 59.51 59.80 59.61 59.12 59.49 58.59 58.93 56.53 48.70 49.33 55.99 58.34 55.43 54.70 53.80 53.67 50.93 51.25 51.46 50.03 48.92 46.08 47.84 46.66 44.04 46.39 46.78 46.14 45.72 46.36 43.77 44.08 49.45 49.91 48.48 49.00 49.92 50.59 50.86
57.76 57.31 57.33 57.81 58.44 58.95 59.42 59.68 58.65 59.42 58.31 58.90 58.56 54.91 46.81 51.76 56.19 54.21 52.79 51.45 52.79 52.38 51.67 51.56 51.89 49.87 48.19 48.00 46.02 43.47 42.90 40.92 45.33 43.86 44.77 45.62 41.42 47.37 49.35 46.76 47.47 48.91 49.87 50.25 50.79
57.42 57.13 57.50 58.03 58.30 58.55 59.07 59.12 57.45 59.42 58.69 58.52 54.34 49.05 45.91 53.45 49.86 51.61 52.03 49.94 50.98 50.83 51.50 50.49 51.29 47.58 46.54 43.40 41.61 42.10 39.19 40.16 41.23 44.48 43.75 44.27 42.37 46.69 47.99 47.27 46.72 47.82 48.65 49.30 49.89
57.43 57.32 57.69 58.14 58.33 58.71 58.98 56.15 56.65 56.50 57.27 56.83 53.47 46.73 47.95 46.45 49.99 49.60 50.39 50.50 48.65 49.17 48.26 47.76 47.12 44.30 42.53 41.57 37.75 41.26 39.68 40.35 38.89 43.80 42.83 41.28 41.18 44.36 46.34 46.09 46.17 47.25 48.21 48.83 48.73
57.65 57.72 57.99 58.24 58.67 59.46 55.75 52.89 52.85 51.11 49.75 48.65 48.52 46.81 46.79 49.91 50.83 48.61 49.65 49.05 48.52 46.71 42.87 43.75 41.64 39.52 43.01 43.55 43.93 41.01 39.78 39.15 41.82 44.25 41.70 40.99 41.75 43.23 45.37 45.65 45.46 46.49 47.60 48.21 48.80
57.90 58.03 58.25 58.37 58.84 57.51 52.99 49.15 47.21 47.43 45.46 49.47 48.21 47.07 47.44 48.96 46.46 46.77 49.92 46.74 45.39 42.67 42.13 40.82 38.63 43.60 43.00 41.39 40.23 40.33 38.56 38.87 42.45 43.17 39.17 41.21 40.17 43.41 45.14 45.50 46.08 46.25 47.10 47.92 49.10
58.05 57.92 58.30 58.37 58.32 56.22 51.00 48.76 51.40 49.95 44.35 46.88 46.60 45.87 46.85 48.33 46.72 47.16 47.85 45.82 43.80 40.41 40.75 41.43 44.00 42.73 40.44 40.36 38.47 39.02 37.29 39.05 39.07 40.69 41.96 39.51 41.23 41.93 45.36 45.01 46.02 46.21 46.87 47.70 48.22
58.11 58.01 58.46 58.55 56.39 54.37 50.75 50.54 51.62 49.68 43.08 44.06 42.87 44.33 45.77 45.58 41.60 45.66 46.45 45.34 42.17 40.93 41.04 40.59 42.53 39.62 38.40 38.02 40.06 36.73 42.09 39.45 37.69 36.22 35.47 39.58 34.00 41.31 44.01 44.51 45.26 45.89 46.21 47.33 48.52
57.89 58.03 58.57 58.55 55.95 54.68 50.28 48.42 49.60 45.33 34.06 41.61 41.16 48.38 46.07 42.25 42.68 42.74 45.72 44.75 40.59 39.64 40.26 40.12 38.01 37.16 37.30 39.24 40.33 39.12 39.63 37.68 36.77 36.54 34.51 37.75 33.08 41.28 42.15 42.15 43.71 45.24 46.68 47.69 48.98
55.89 57.79 57.69 55.47 55.09 53.22 50.85 48.76 47.62 39.31 33.39 40.88 41.38 41.31 41.41 41.94 40.96 42.45 42.99 44.96 43.13 40.44 39.87 40.20 40.47 40.40 41.16 39.52 40.11 39.69 38.66 37.40 36.01 35.82 30.74 38.32 36.09 38.45 40.31 40.89 42.40 45.96 46.89 48.50 46.20
53.77 56.64 56.49 56.91 53.75 52.22 52.11 52.26 40.74 35.50 43.67 38.54 38.19 40.09 39.17 39.05 39.73 40.83 40.12 39.35 38.90 36.49 38.09 38.53 38.29 40.61 40.35 38.33 38.62 38.68 36.97 32.52 32.07 32.12 31.52 37.37 33.76 37.62 43.45 45.17 43.46 44.14 44.66 43.48 43.20
52.02 54.90 55.32 55.98 53.73 54.03 54.05 45.14 32.53 38.52 39.47 44.30 41.53 39.38 39.54 40.69 41.71 38.95 37.83 38.46 39.60 38.11 37.50 36.24 34.84 38.14 40.57 40.60 40.36 37.51 38.54 33.16 25.61 27.77 32.21 38.09 31.37 38.13 44.48 44.53 43.90 42.24 40.83 41.01 40.90
52.86 54.42 53.67 54.36 54.36 54.49 48.84 37.69 37.90 39.65 43.78 42.63 42.16 40.09 40.25 39.58 39.75 38.78 38.74 39.58 40.50 39.30 36.33 36.12 35.92 38.73 37.59 39.55 41.10 36.42 34.10 39.34 32.85 33.10 30.29 33.69 37.96 42.88 45.05 41.33 39.77 39.85 41.07 40.20 39.60
48.65 47.30 47.53 54.82 54.36 52.68 44.04 38.44 40.53 43.13 42.96 42.71 37.59 40.76 37.33 39.35 38.13 37.00 38.97 39.59 38.42 39.82 39.89 38.15 32.45 40.19 38.47 38.54 38.79 37.55 39.34 33.00 32.42 24.65 24.18 30.83 33.29 34.97 40.14 40.13 37.77 37.68 37.68 37.42 37.98
47.76 43.16 47.35 54.87 54.11 47.35 38.36 38.83 41.30 45.28 45.75 42.22 40.20 39.31 39.40 38.35 38.71 37.38 37.91 41.01 41.46 38.97 39.40 39.55 37.20 36.61 39.12 37.74 36.65 36.45 33.47 33.17 32.92 31.76 26.17 25.49 31.19 41.38 38.86 37.69 36.18 35.67 35.78 35.39 35.22
45.02 37.11 48.33 53.76 42.11 42.44 37.42 39.18 40.88 40.85 43.05 42.12 41.79 40.56 39.03 39.06 37.07 37.04 36.37 39.43 43.40 39.78 38.34 41.29 37.38 31.96 34.65 41.05 41.46 39.13 37.13 37.07 30.23 28.89 31.36 29.87 30.12 42.60 41.45 38.22 34.08 33.48 33.93 33.32 33.06
41.67 40.97 47.45 50.52 35.71 36.06 38.33 37.86 39.61 38.41 38.40 38.36 38.36 39.92 39.93 36.36 32.95 36.38 37.45 40.54 40.29 40.22 38.28 39.33 34.11 28.94 31.56 35.74 35.81 33.99 36.12 35.54 35.99 32.84 28.79 25.64 28.73 40.13 39.27 37.18 33.51 32.52 31.53 31.62 32.51
39.51 33.11 40.20 43.70 43.27 37.73 35.68 35.24 35.24 40.21 39.56 39.95 38.66 39.75 37.09 34.74 36.97 33.78 35.15 38.86 38.48 36.55 37.28 37.92 32.49 31.40 27.42 30.48 32.75 30.29 33.78 33.14 30.00 25.21 25.91 26.29 28.23 32.92 34.14 31.06 30.59 30.47 31.23 30.98 31.87
36.91 32.28 36.12 33.59 35.73 37.46 35.92 34.87 33.01 32.69 37.17 37.30 34.61 35.26 32.96 30.38 32.06 32.27 33.29 32.27 34.07 32.88 32.30 32.89 28.12 30.02 29.94 28.72 27.48 27.30 26.54 26.84 25.09 26.06 21.53 25.07 24.99 29.88 28.86 27.15 28.63 30.02 29.77 29.12 30.54
33.09 32.75 35.15 32.47 33.40 33.70 34.55 32.43 31.61 33.38 32.90 31.91 31.11 31.05 31.26 29.95 31.53 29.00 28.41 28.97 29.69 29.75 28.75 29.67 24.72 24.73 21.72 26.58 26.27 23.88 25.51 25.93 25.88 25.88 25.53 26.29 25.50 27.34 28.29 29.62 28.79 28.91 28.27 27.87 29.53
35.08 36.16 33.65 28.88 30.06 29.63 29.46 30.60 29.88 32.17 29.22 31.31 29.59 28.49 26.79 29.26 32.13 31.77 31.72 30.87 30.16 27.53 26.29 25.77 24.40 22.00 17.95 23.59 20.15 16.05 22.24 25.15 26.51 28.30 25.34 20.45 24.56 24.40 24.09 25.58 26.68 27.66 28.36 28.02 29.42
MSLP
1021.53 1021.40 1021.19 1020.98 1020.81 1020.59 1020.42 1020.31 1020.17 1019.97 1019.64 1019.35 1019.03 1018.88 1018.70 1018.43 1018.07 1017.81 1016.65 1015.46 1015.60 1016.13 1016.27 1016.54 1016.56 1016.57 1016.54 1016.47 1016.60 1016.43 1015.31 1014.18 1013.81 1013.87 1013.11 1013.60 1013.60 1013.75 1013.58 1013.15 1013.12 1012.88 1012.40 1012.64 1013.76
1021.62 1021.42 1021.26 1021.10 1020.87 1020.64 1020.44 1020.23 1020.05 1019.91 1019.69 1019.38 1019.10 1018.82 1018.59 1018.37 1017.85 1016.69 1015.29 1015.29 1015.54 1015.88 1016.00 1015.97 1016.14 1016.37 1016.19 1016.37 1016.46 1015.90 1015.07 1013.89 1013.62 1013.47 1013.30 1013.56 1013.65 1013.42 1013.30 1012.51 1012.11 1012.03 1012.26 1012.79 1013.60
1021.71 1021.48 1021.28 1021.11 1020.88 1020.66 1020.39 1020.17 1019.94 1019.71 1019.51 1019.33 1019.07 1018.83 1018.62 1018.30 1017.39 1015.48 1015.21 1015.51 1015.79 1015.91 1015.79 1015.98 1016.05 1016.14 1016.10 1016.32 1016.05 1015.78 1014.58 1013.93 1013.83 1013.76 1013.90 1013.75 1013.59 1013.51 1012.67 1011.55 1011.17 1011.01 1010.98 1011.69 1012.66
1021.68 1021.48 1021.32 1021.07 1020.82 1020.54 1020.28 1019.99 1019.72 1019.47 1019.26 1019.11 1019.00 1018.85 1018.59 1018.12 1016.95 1015.55 1015.46 1015.65 1016.05 1016.06 1016.03 1016.12 1016.12 1016.00 1015.87 1015.74 1015.73 1015.68 1014.64 1014.40 1014.04 1014.19 1014.21 1013.84 1013.41 1012.95 1012.37 1010.94 1010.47 1010.60 1010.70 1011.03 1011.51
1021.48 1021.40 1021.23 1020.98 1020.69 1020.43 1020.08 1019.77 1019.47 1019.19 1018.95 1018.82 1018.78 1018.71 1018.41 1017.67 1016.06 1015.65 1015.60 1015.85 1016.17 1016.23 1015.97 1015.95 1015.88 1015.86 1015.60 1015.63 1015.90 1015.60 1014.52 1014.53 1014.41 1014.55 1014.27 1014.08 1013.19 1012.76 1011.34 1010.79 1010.40 1010.35 1010.63 1010.47 1010.64
1021.43 1021.21 1021.10 1020.86 1020.53 1020.21 1019.92 1019.52 1019.10 1018.78 1018.48 1018.40 1018.48 1018.56 1018.19 1017.19 1015.72 1015.81 1015.88 1016.17 1015.97 1016.04 1016.04 1016.08 1015.72 1015.90 1015.79 1015.83 1015.87 1015.42 1015.08 1014.56 1014.28 1014.17 1014.02 1013.89 1012.31 1012.88 1010.21 1010.06 1009.97 1009.98 1009.89 1009.84 1009.86
1021.27 1021.09 1020.90 1020.70 1020.39 1020.03 1019.66 1019.23 1018.77 1018.31 1017.99 1017.95 1018.20 1018.21 1017.66 1016.18 1015.91 1016.08 1016.21 1016.24 1016.20 1015.95 1015.94 1016.14 1016.12 1016.07 1016.09 1015.90 1016.01 1015.66 1014.98 1013.95 1013.23 1013.45 1013.68 1013.57 1012.53 1011.48 1010.15 1010.17 1009.69 1009.31 1008.97 1008.95 1009.10
1021.14 1020.99 1020.78 1020.48 1020.24 1019.79 1019.39 1019.02 1018.64 1018.27 1017.90 1017.86 1018.12 1017.94 1016.87 1016.21 1016.09 1016.24 1016.18 1016.42 1016.58 1016.51 1016.32 1016.35 1016.39 1016.26 1016.21 1016.27 1015.89 1015.50 1015.18 1013.64 1012.59 1013.38 1013.41 1013.46 1011.32 1010.17 1010.04 1010.22 1009.41 1008.91 1008.33 1008.05 1007.72
1020.85 1020.81 1020.63 1020.34 1020.00 1019.51 1018.96 1018.57 1018.45 1018.34 1018.12 1018.09 1018.03 1017.58 1016.59 1016.47 1016.32 1016.21 1016.22 1016.24 1016.54 1016.71 1016.80 1016.75 1016.45 1016.47 1016.53 1016.05 1015.60 1015.01 1013.76 1013.40 1013.04 1012.76 1013.15 1013.12 1011.20 1010.50 1010.43 1010.04 1008.63 1008.27 1007.85 1007.51 1007.21
1020.60 1020.52 1020.39 1020.18 1019.86 1019.39 1018.70 1018.29 1018.20 1018.30 1018.21 1017.99 1017.65 1017.73 1016.29 1016.08 1016.18 1016.40 1016.52 1016.42 1016.56 1016.77 1016.92 1016.97 1016.83 1016.34 1016.30 1015.74 1014.23 1013.60 1013.58 1013.20 1013.23 1012.54 1012.70 1012.61 1011.29 1010.94 1009.85 1010.17 1008.25 1007.36 1006.65 1007.24 1007.18
1020.36 1020.32 1020.19 1020.05 1019.73 1019.34 1018.56 1018.25 1018.46 1018.44 1017.97 1017.19 1016.69 1016.18 1015.92 1016.04 1016.23 1016.36 1016.50 1016.56 1016.46 1016.74 1016.61 1017.05 1016.67 1015.65 1014.77 1014.59 1014.20 1014.23 1013.74 1013.03 1012.90 1013.01 1012.70 1011.52 1010.81 1010.33 1009.26 1008.70 1007.69 1006.73 1006.55 1006.87 1006.82
1020.00 1020.07 1020.05 1019.95 1019.70 1019.23 1018.95 1018.98 1019.66 1020.06 1018.54 1016.74 1016.42 1016.47 1016.32 1016.28 1016.36 1016.47 1016.53 1016.44 1016.47 1016.30 1016.90 1017.18 1015.94 1015.36 1015.30 1015.20 1015.11 1014.61 1014.08 1013.26 1012.58 1012.61 1013.20 1011.40 1010.07 1009.38 1008.40 1007.47 1006.78 1006.92 1006.62 1006.68 1006.61
1019.69 1019.75 1019.82 1019.82 1019.73 1019.42 1019.46 1019.87 1020.04 1020.00 1019.17 1017.05 1016.65 1016.51 1016.43 1016.40 1016.16 1016.28 1016.52 1016.28 1016.27 1016.51 1016.41 1015.71 1015.01 1015.38 1015.61 1015.53 1015.32 1014.85 1014.45 1013.77 1013.38 1013.17 1012.20 1011.47 1008.88 1008.52 1007.37 1007.17 1006.37 1006.86 1007.16 1006.88 1006.78
1019.29 1019.47 1019.53 1019.65 1020.02 1019.70 1019.79 1020.06 1020.09 1020.21 1018.86 1016.95 1016.64 1016.56 1016.58 1016.33 1016.56 1016.75 1016.71 1016.67 1016.57 1016.33 1016.45 1016.00 1015.65 1015.73 1015.87 1015.62 1015.43 1014.89 1014.13 1014.25 1014.13 1014.04 1012.45 1012.27 1007.53 1007.80 1007.21 1006.79 1006.40 1006.87 1006.75 1006.92 1007.13
1018.82 1018.94 1019.26 1019.43 1019.48 1019.86 1020.21 1020.04 1020.26 1020.53 1018.48 1016.89 1016.49 1016.44 1016.43 1016.51 1016.82 1017.00 1017.15 1016.76 1016.60 1016.64 1016.75 1015.58 1015.85 1016.12 1015.91 1015.34 1015.41 1014.88 1014.80 1014.66 1014.46 1013.88 1013.17 1011.71 1010.53 1007.01 1006.95 1006.45 1006.63 1007.00 1007.25 1007.61 1007.58
1018.44 1018.51 1018.87 1019.23 1019.42 1019.91 1020.05 1020.21 1020.38 1020.04 1017.53 1016.54 1016.39 1016.34 1016.22 1016.36 1016.70 1016.99 1017.04 1016.99 1016.95 1016.38 1016.25 1015.57 1016.04 1015.89 1015.50 1015.62 1015.47 1015.61 1015.31 1015.10 1014.69 1013.92 1012.08 1010.32 1009.88 1007.23 1006.86 1006.83 1006.90 1007.20 1007.70 1008.13 1009.42
1018.48 1018.25 1018.48 1018.66 1019.20 1019.39 1019.86 1020.02 1020.06 1018.51 1016.75 1016.48 1016.13 1016.16 1015.98 1016.07 1016.17 1016.14 1016.50 1016.54 1016.36 1016.21 1015.48 1015.38 1015.29 1015.12 1015.15 1015.43 1015.71 1015.18 1015.37 1014.46 1013.73 1013.01 1010.66 1010.28 1009.16 1008.11 1007.40 1007.34 1008.33 1008.29 1008.77 1009.96 1011.04
1018.61 1018.60 1018.33 1018.49 1019.10 1019.53 1019.74 1019.95 1019.22 1017.98 1017.00 1016.19 1015.88 1015.97 1015.89 1015.62 1015.47 1015.91 1015.97 1015.65 1015.77 1015.81 1015.27 1014.95 1014.61 1014.89 1014.64 1014.49 1014.40 1014.80 1014.73 1014.43 1013.69 1012.59 1010.74 1010.46 1006.33 1006.57 1007.29 1008.44 1009.79 1011.19 1011.78 1012.50 1013.11
1018.52 1018.81 1018.80 1018.58 1018.76 1019.13 1019.40 1018.57 1017.08 1016.79 1016.43 1016.20 1015.89 1015.35 1015.41 1015.76 1015.89 1015.79 1015.61 1015.03 1015.14 1015.41 1015.27 1014.64 1013.94 1014.49 1014.63 1014.46 1014.26 1014.54 1014.48 1014.11 1014.11 1013.41 1012.08 1008.83 1006.26 1006.66 1006.90 1008.97 1010.94 1012.40 1013.06 1013.94 1014.61
1019.07 1019.03 1018.88 1018.53 1018.59 1019.00 1018.90 1017.73 1016.88 1016.29 1015.98 1016.04 1015.96 1015.80 1015.43 1015.85 1016.37 1016.42 1015.68 1015.51 1015.53 1015.71 1015.79 1015.46 1014.58 1013.97 1014.36 1014.83 1014.77 1014.79 1014.53 1014.57 1014.63 1013.49 1011.65 1008.74 1007.61 1006.26 1007.69 1009.96 1012.05 1013.26 1014.61 1015.52 1015.68
1018.82 1019.25 1018.75 1018.61 1018.81 1019.10 1018.23 1017.26 1016.69 1016.46 1016.19 1016.25 1015.81 1015.73 1015.74 1015.99 1016.52 1016.91 1016.53 1015.98 1015.93 1016.32 1016.49 1016.41 1016.06 1014.09 1014.73 1014.27 1013.89 1014.89 1015.03 1014.82 1014.30 1013.38 1011.74 1010.10 1007.45 1007.69 1009.52 1011.55 1012.90 1014.11 1015.32 1016.29 1016.43
1019.04 1019.37 1018.76 1018.76 1019.11 1018.77 1017.83 1017.88 1017.50 1016.91 1016.74 1016.69 1016.83 1016.26 1016.39 1016.57 1016.28 1016.68 1016.68 1016.71 1016.65 1017.01 1017.30 1016.74 1016.55 1015.65 1013.98 1013.59 1013.84 1014.22 1014.20 1014.52 1014.14 1013.09 1012.08 1011.02 1009.10 1008.89 1010.55 1012.56 1014.40 1015.53 1016.30 1017.17 1017.11
1019.00 1019.11 1018.97 1018.65 1018.43 1018.37 1018.41 1018.33 1017.75 1017.52 1017.50 1017.16 1017.18 1017.05 1017.13 1017.45 1017.42 1016.69 1017.24 1017.82 1018.06 1017.97 1018.32 1018.02 1017.37 1016.91 1014.76 1014.55 1014.92 1015.11 1014.77 1014.87 1014.63 1014.59 1012.96 1012.04 1010.85 1011.48 1011.65 1013.12 1014.92 1016.04 1016.85 1017.22 1017.36
1019.74 1019.72 1019.22 1018.55 1018.30 1018.14 1018.43 1018.09 1017.97 1017.83 1017.64 1017.48 1017.50 1017.84 1018.11 1018.12 1018.38 1017.78 1017.92 1018.71 1019.25 1019.55 1019.69 1019.46 1018.61 1018.14 1017.13 1016.36 1016.42 1016.65 1016.70 1016.59 1016.66 1015.63 1014.65 1013.66 1013.04 1013.16 1013.87 1014.88 1015.37 1016.49 1016.93 1017.15 1017.32
1019.98 1019.73 1019.31 1019.04 1018.84 1018.72 1018.62 1018.36 1018.38 1018.42 1018.16 1018.20 1018.38 1018.66 1019.15 1019.33 1019.18 1019.14 1019.68 1020.06 1020.39 1020.84 1020.70 1020.69 1019.94 1019.41 1018.71 1018.68 1018.36 1017.70 1017.81 1017.30 1017.38 1016.75 1016.21 1014.49 1014.22 1014.41 1015.43 1016.70 1016.59 1016.57 1016.94 1017.03 1016.85
1020.34 1019.99 1020.34 1019.71 1019.46 1019.39 1019.22 1018.83 1018.87 1019.00 1019.43 1019.41 1019.72 1020.00 1020.17 1020.27 1020.29 1020.61 1021.30 1021.68 1021.56 1021.85 1021.63 1021.97 1021.11 1020.78 1019.69 1019.61 1019.04 1018.21 1017.68 1017.12 1017.09 1016.55 1016.00 1015.62 1014.93 1016.50 1017.30 1017.32 1017.10 1017.09 1016.65 1016.20 1016.13
1020.65 1020.68 1020.47 1020.39 1020.23 1020.20 1019.71 1019.55 1019.71 1019.86 1020.84 1020.83 1021.08 1021.20 1021.33 1021.34 1021.70 1021.89 1022.34 1022.43 1022.33 1022.18 1022.02 1022.02 1021.89 1021.60 1020.43 1020.35 1019.79 1018.31 1016.80 1016.67 1016.04 1015.62 1016.15 1016.10 1016.49 1017.56 1017.74 1017.60 1017.36 1017.20 1017.17 1016.69 1016.30
Wind_Speed
8 8 9 9 9 10 10 10 10 10 10 10 11 10 9 10 6 3 7 3 5 13 7 9 3 4 2 3 2 1 4 5 4 6 2 4 4 4 2 8 5 8 6 2 5
6 7 7 8 8 9 9 10 9 9 10 10 11 10 9 8 3 8 3 3 9 13 9 12 8 6 3 3 3 5 4 5 4 5 5 3 5 7 6 12 14 14 14 9 6
5 6 6 7 8 10 10 10 10 9 9 10 11 11 10 6 5 2 3 7 12 7 5 4 7 4 4 3 6 5 7 5 6 11 7 6 7 6 10 14 14 14 12 9 12
5 5 7 8 9 10 11 11 12 10 10 9 9 10 11 4 7 2 3 8 10 6 8 7 7 5 5 7 5 6 13 9 4 3 4 7 4 9 14 23 22 18 18 14 14
4 5 6 8 10 11 12 13 13 12 11 10 8 8 4 3 7 2 7 10 9 7 8 7 7 5 7 5 4 9 10 8 9 8 11 11 17 16 19 23 22 19 17 18 17
6 6 7 9 10 12 13 14 14 13 11 9 7 5 3 8 3 4 8 7 7 9 7 6 5 4 3 4 8 3 7 12 10 13 13 10 21 2 12 12 12 13 16 15 15
6 7 8 9 11 12 13 15 16 11 9 5 5 3 4 12 3 4 4 2 4 6 6 4 4 6 3 3 3 5 12 15 13 7 9 5 12 14 21 10 16 17 14 13 14
6 7 8 8 10 12 13 14 11 9 4 5 5 3 7 2 3 4 3 3 2 2 1 2 4 2 3 1 3 6 4 9 1 7 2 6 16 18 11 6 14 19 22 22 22
6 7 8 9 10 13 14 13 2 6 6 7 3 2 6 2 1 1 1 4 6 3 5 5 3 1 3 6 7 5 11 12 10 7 3 10 13 10 10 16 26 24 23 21 21
7 7 8 9 11 13 16 5 2 2 2 3 1 3 4 1 3 3 2 6 3 6 4 2 2 5 3 7 11 13 11 10 10 9 8 12 22 21 24 18 27 25 23 17 17
8 7 8 9 10 13 8 1 3 2 1 5 1 4 2 3 2 2 1 4 5 3 7 2 7 11 17 17 15 10 14 19 18 18 20 19 18 17 24 20 24 24 19 13 13
7 7 8 8 10 10 3 3 2 3 8 8 11 8 1 2 2 3 5 8 6 7 6 4 12 16 5 5 10 15 16 19 16 9 5 18 23 23 22 24 22 17 14 11 11
8 7 7 7 9 2 2 3 3 2 5 7 2 2 0 5 6 5 8 5 5 8 12 18 9 2 10 13 13 11 13 17 19 13 14 14 16 4 6 7 12 8 9 10 9
9 8 7 5 3 1 2 3 3 1 6 3 2 1 2 2 1 2 1 1 3 8 7 10 4 7 4 10 11 15 11 14 12 7 10 9 16 6 11 13 11 3 3 5 5
10 9 9 8 1 2 3 4 3 1 8 3 2 1 1 1 3 4 1 1 4 4 4 3 3 4 6 8 10 4 2 1 2 8 9 5 9 3 5 11 6 3 7 6 8
5 7 6 3 2 3 3 4 2 1 8 1 2 2 3 1 2 2 1 3 2 5 5 10 1 4 4 2 5 2 2 2 1 4 8 5 8 5 4 2 2 10 12 15 20
8 6 9 6 3 8 4 2 2 6 3 1 2 2 1 4 5 7 6 6 5 8 9 3 6 3 4 5 3 4 4 6 7 6 11 4 11 6 10 12 8 16 20 22 23
4 2 2 1 5 7 3 3 5 2 3 2 1 2 4 2 4 3 3 7 8 4 4 8 12 9 9 9 6 8 8 8 6 12 21 12 20 7 4 6 14 17 17 16 18
3 1 1 3 7 3 2 5 6 8 7 5 2 12 15 3 3 4 7 10 5 13 8 6 13 1 5 2 6 6 7 5 9 14 12 17 30 20 17 9 13 14 17 16 14
2 2 3 5 6 2 2 7 6 3 5 1 10 6 13 7 7 3 4 2 2 5 1 2 13 10 3 3 3 5 3 9 6 10 20 21 22 15 15 8 7 9 10 10 13
2 1 1 4 3 2 6 7 7 4 5 7 12 14 17 13 8 5 8 6 4 4 5 5 6 13 5 10 17 9 9 8 7 9 12 18 17 14 6 8 6 7 7 9 10
3 2 0 4 4 3 7 5 2 5 1 3 4 8 14 12 12 12 17 15 3 1 12 11 9 18 27 23 14 16 22 20 11 11 13 16 20 21 6 8 9 5 5 5 7
4 2 1 2 6 7 2 3 5 6 7 4 6 4 2 5 7 11 12 4 6 2 5 4 4 10 9 9 1 7 10 15 19 7 21 20 11 6 13 16 13 9 3 4 6
3 4 1 2 2 5 8 9 8 2 6 5 5 6 8 11 9 9 8 1 3 4 6 5 3 7 13 13 16 9 6 5 5 5 9 13 20 19 17 18 14 8 7 8 6
1 2 1 6 7 11 9 3 4 4 1 3 2 5 2 3 3 6 2 3 4 5 3 1 10 12 14 11 8 9 10 15 15 16 11 17 22 24 13 7 11 15 12 12 10
3 2 2 2 2 7 9 7 14 14 3 4 8 4 1 6 7 10 1 3 7 2 2 2 3 4 8 11 14 19 20 23 24 25 26 26 26 6 4 7 10 13 16 18 15
1 1 0 3 6 7 6 4 4 8 2 0 4 3 3 4 4 3 6 7 8 7 7 6 5 6 12 15 14 13 17 19 20 24 14 14 7 3 3 8 13 13 14 16 15
Wind_Direction
39 33 32 31 23 16 10 2 355 347 342 337 336 336 338 339 312 191 237 204 178 157 123 135 137 129 151 117 117 215 229 242 241 194 216 170 244 171 290 267 220 206 251 352 122
37 35 27 18 10 2 357 351 345 338 330 325 322 322 328 335 275 251 267 178 149 156 147 168 166 161 154 143 168 226 239 253 234 218 253 250 238 283 261 253 254 249 246 224 190
15 12 10 2 354 345 344 337 331 326 321 318 315 315 319 305 286 261 64 161 158 168 153 138 137 171 205 194 188 180 241 244 233 245 259 277 256 242 263 275 262 271 287 247 224
350 350 351 347 341 337 334 330 325 317 307 303 306 311 314 250 293 74 340 163 153 157 134 143 159 181 217 214 187 237 244 238 269 213 241 254 285 258 242 261 278 284 279 273 244
334 336 335 331 330 331 331 330 324 313 298 291 292 309 279 221 249 80 102 128 145 167 185 175 182 188 225 217 193 239 262 259 254 261 263 279 261 264 267 261 275 274 274 270 261
321 330 330 326 323 326 329 328 325 315 298 276 263 296 207 252 63 123 125 140 170 178 175 186 231 217 267 237 224 357 283 278 276 259 252 252 270 225 262 266 273 271 275 276 271
308 320 326 325 324 327 325 326 326 316 312 267 212 222 224 258 63 129 136 176 179 188 172 192 164 200 149 248 290 307 296 291 255 257 232 225 265 231 260 294 286 285 274 276 269
295 308 319 322 322 323 321 327 326 333 13 144 169 206 254 26 135 150 149 85 91 73 54 137 170 165 239 47 264 274 261 283 335 172 167 209 273 288 315 290 287 288 288 292 284
283 300 313 319 322 319 318 323 297 47 95 134 172 230 260 146 210 102 198 152 121 90 59 105 158 195 161 237 267 224 273 252 297 210 139 213 286 271 288 298 288 284 282 282 292
278 291 307 319 324 320 320 301 204 285 209 239 108 219 188 226 127 109 53 134 121 129 112 113 142 206 191 204 252 282 263 253 265 294 249 266 271 282 282 276 276 280 280 294 290
272 288 303 316 321 325 332 306 255 209 233 246 219 275 259 95 155 112 145 134 124 159 189 134 210 212 232 226 258 286 272 281 279 283 291 287 285 280 279 273 264 273 283 294 290
253 276 296 315 322 330 314 64 68 35 295 257 264 271 325 331 283 138 180 188 187 206 140 170 233 232 296 276 246 258 270 273 280 291 288 294 296 281 265 263 263 277 287 286 302
244 248 270 298 319 325 22 82 116 170 254 282 241 251 305 198 231 215 200 154 205 189 204 239 259 240 213 242 250 244 262 280 284 315 278 306 283 268 256 252 270 253 268 281 304
240 248 236 279 270 155 104 124 141 299 270 238 195 110 140 162 157 346 297 280 183 255 218 253 284 230 206 246 236 271 264 258 278 297 298 15 295 300 268 284 270 35 308 291 357
237 231 229 193 140 201 115 112 127 275 274 71 125 113 115 193 109 53 324 160 226 175 213 242 166 170 209 234 183 257 45 222 225 273 304 253 264 13 169 264 309 52 29 355 321
81 213 171 125 134 96 124 128 212 188 235 108 123 175 158 128 97 114 92 35 350 209 219 257 112 217 238 160 189 122 288 289 223 255 253 299 241 31 19 134 104 360 350 353 30
27 145 161 137 204 152 162 83 211 237 337 84 167 199 196 172 181 178 167 185 230 280 266 185 208 221 190 240 160 170 271 293 265 236 270 349 281 249 300 291 336 347 11 32 30
22 22 148 112 135 155 156 147 205 314 296 222 267 195 273 223 240 174 187 245 216 204 265 272 271 193 164 217 260 204 233 237 266 273 288 281 264 267 86 350 36 50 57 41 33
25 349 277 171 152 213 160 216 217 188 186 231 244 269 273 260 263 226 235 265 217 193 220 253 248 193 233 211 207 142 208 260 274 274 280 270 270 270 236 73 60 42 23 22 23
142 147 238 158 144 255 160 225 237 213 141 105 250 249 267 263 277 265 252 96 204 209 330 293 283 221 174 168 211 248 341 245 220 253 250 263 266 258 286 351 64 33 30 19 14
108 158 68 157 164 190 232 252 275 259 204 218 239 256 274 275 246 200 230 262 267 218 212 294 252 265 263 242 260 246 248 238 270 248 251 255 260 273 14 70 21 27 35 20 23
144 203 86 194 184 211 234 215 352 256 312 262 289 262 257 267 263 260 268 260 24 153 279 256 275 274 271 272 266 263 259 256 248 238 225 248 257 286 320 75 65 27 31 33 28
167 141 11 239 203 200 209 246 226 194 214 200 232 228 211 259 256 241 249 86 36 24 326 37 234 263 268 233 80 241 252 264 268 293 252 261 256 291 323 334 34 28 67 359 348
151 160 200 221 206 206 221 244 234 205 218 211 247 237 249 254 244 264 258 79 39 39 6 16 228 272 275 294 316 269 227 251 267 263 296 271 283 288 298 329 338 9 348 336 331
22 196 341 186 218 221 218 192 183 193 349 55 211 137 122 269 288 248 303 353 78 7 75 1 266 278 278 304 298 284 286 280 270 265 257 284 285 285 334 330 328 323 330 331 324
157 159 128 153 144 195 211 241 243 239 240 226 254 320 180 244 251 289 278 214 276 78 105 62 279 327 284 280 274 288 279 269 269 266 263 259 268 62 331 305 308 317 327 326 320
114 40 59 128 170 181 207 209 177 145 62 4 131 134 208 237 198 203 236 251 257 253 262 266 260 267 269 291 312 278 258 271 276 273 296 273 298 128 330 328 322 311 300 304 293